CW8618 Weather Reports


Display with metric or nautical units.
time (UTC)temp
F
wind
direction
speed
MPH
gust
MPH
rain 1hr
in
rain 24hr
in
rain mn
in
humidity
%
barometer
mb
20260510040805 49 287 3.0 6.0 0.00 0.09 0.00 68 1005.4
20260510040305 49 275 3.0 10.0 0.00 0.09 0.00 68 1005.4
20260510030804 52 279 5.0 8.0 0.00 0.09 0.09 73 1004.8
20260510030305 52 300 3.0 15.0 0.00 0.09 0.09 73 1005.0
20260510020805 53 289 3.0 6.0 0.00 0.09 0.09 88 1004.1
20260510010305 54 244 2.0 12.0 0.00 0.09 0.09 86 1002.3
20260510000804 56 254 3.0 6.0 0.01 0.09 0.09 84 1001.6
20260510000305 56 229 3.0 12.0 0.01 0.09 0.09 84 1001.5
20260509220306 56 220 5.0 20.0 0.09 0.09 0.09 85 1001.1
20260509210805 57 137 3.0 13.0 0.00 0.00 0.00 74 1001.1
20260509210305 57 122 6.0 15.0 0.00 0.00 0.00 73 1000.7
20260509200304 58 160 5.0 18.0 0.00 0.00 0.00 74 1001.3
20260509190804 61 148 10.0 18.0 0.00 0.00 0.00 69 1001.6
20260509190304 62 160 7.0 24.0 0.00 0.00 0.00 68 1001.8
20260509180805 64 178 7.0 18.0 0.00 0.00 0.00 65 1001.6
20260509170306 60 221 5.0 13.0 0.00 0.00 0.00 74 1003.1
20260509160804 56 184 4.0 9.0 0.00 0.00 0.00 81 1003.8
20260509150805 55 219 5.0 13.0 0.00 0.00 0.00 80 1004.3
20260509150305 55 202 5.0 13.0 0.00 0.00 0.00 80 1004.1
20260509140805 56 191 6.0 12.0 0.00 0.00 0.00 74 1004.8
20260509140305 56 179 6.0 12.0 0.00 0.00 0.00 73 1004.7
20260509130805 51 125 3.0 12.0 0.00 0.00 0.00 71 1005.4
20260509130305 51 90 3.0 9.0 0.00 0.00 0.00 71 1005.3
20260509120805 45 127 7.0 9.0 0.00 0.00 0.00 77 1005.3
20260509120305 44 114 4.0 9.0 0.00 0.00 0.00 79 1005.3
20260509110805 37 119 0.0 0.0 0.00 0.00 0.00 87 1005.5
20260509110305 37 119 0.0 0.0 0.00 0.00 0.00 87 1005.5
20260509100805 36 119 0.0 0.0 0.00 0.01 0.00 85 1005.9
20260509100305 36 119 0.0 0.0 0.00 0.01 0.00 85 1006.0
20260509090805 37 119 0.0 0.0 0.00 0.01 0.00 85 1006.1
20260509090305 37 119 0.0 0.0 0.00 0.01 0.00 85 1006.3
20260509080805 38 119 0.0 0.0 0.00 0.01 0.00 84 1006.1
20260509080305 38 119 0.0 0.0 0.00 0.01 0.00 84 1006.2
20260509070805 38 119 0.0 0.0 0.00 0.01 0.00 80 1006.4
20260509070305 38 119 0.0 2.0 0.00 0.01 0.00 80 1006.5
20260509060805 39 119 0.0 1.0 0.00 0.01 0.00 78 1007.3
20260509050305 41 119 1.0 3.0 0.00 0.01 0.00 75 1007.8